Back to catalog

SL-16 DEB

AlivePO
NORAD 25403·DEBRIS·🇷🇺 Russia

Launched Jul 10, 1998 from Baikonur Cosmodrome

Loading…

Next Passes (next 24 hours)

TLE

FreshSource: Space-Track

Epoch: Sep 14, 2026, 14:26 UTC

1 25403U 98043K   26257.60204953  .00000077  00000-0  94476-4 0  9997
2 25403  98.6020 181.9604 0212247 121.5296   2.1832 13.78595984416695

Track SL-16 DEB in real time with AllMySat

Download on the App Store